Miscellaneous Local Product
Issued by NWS North Platte, NE

Home | Current Version | Previous Version | Graphics & Text | Print | Product List | Glossary On
Versions: 1 2 3 4 5 6 7 8 9 10 11 12 13 14 15 16 17 18 19 20 21 22 23 24 25 26 27 28 29 30 31 32 33 34 35 36 37 38 39 40 41 42 43 44 45 46 47 48 49 50
579
AXUS43 KLBF 291410
MISLBF


WESTERN AND NORTH CENTRAL NEBRASKA HOURLY WEATHER ROUNDUP
NATIONAL WEATHER SERVICE NORTH PLATTE NE
900 AM CDT THU SEP 29 2016

NOTE: "FAIR" INDICATES FEW OR NO CLOUDS BELOW 12,000 FEET WITH NO
SIGNIFICANT WEATHER AND/OR OBSTRUCTIONS TO VISIBILITY.

NOTE: STATIONS NOT REPORTING VARIABLES SUCH AS SKY/WEATHER OR
PRESSURE ARE PROVIDED BY RAWS AND APRS NETWORKS AND ARE NOT UNDER
NATIONAL WEATHER SERVICE QUALITY CONTROL.

...OBSERVATIONS IN AND NEAR THE EASTERN PANHANDLE OF NEBRASKA...

CITY           SKY/WX    TMP DP  RH WIND       PRES   REMARKS
PINE RIDGE     SUNNY     53  39  59 S10       30.34R
CHADRON        SUNNY     56  38  50 SE5       30.32S
ALLIANCE       SUNNY     47  40  76 SE8       30.36R
SIDNEY         SUNNY     53  42  66 S10       30.38R
CRESCENT LAKE    N/A     49  40  72 SE6         N/A
$$

...OBSERVATIONS IN NORTHERN NEBRASKA AND FAR SOUTHERN SOUTH DAKOTA...

CITY           SKY/WX    TMP DP  RH WIND       PRES   REMARKS
WINNER         FAIR      50  44  80 S7        30.43R
VALENTINE      SUNNY     44  40  85 CALM      30.41F
THEDFORD       CLOUDY    43  41  95 CALM      30.44S
AINSWORTH      SUNNY     46  45  97 S8        30.43S
O`NEILL        CLOUDY    46  45  96 CALM      30.47R
ORD            CLOUDY    42  38  85 CALM      30.46R
BROKEN BOW     CLOUDY    44  42  93 CALM      30.45R
VALENTINE NWR    N/A     41  40  98 CALM        N/A
BUTTE            N/A     48  45  90 CALM        N/A
HALSEY           N/A     43  40  89 CALM        N/A
EWING            N/A     46  45  97 CALM        N/A
$$

...OBSERVATIONS IN SOUTHWEST NEBRASKA AND FAR NORTHEAST COLORADO...

CITY           SKY/WX    TMP DP  RH WIND       PRES   REMARKS
HOLYOKE        FAIR      46  41  81 SE5       30.40R
IMPERIAL       SUNNY     46  39  76 SE7       30.41R
OGALLALA       SUNNY     47  40  76 E3        30.41R
NORTH PLATTE   SUNNY     43  41  93 E5        30.44R
MCCOOK         SUNNY     43  40  89 E3        30.44R
LEXINGTON      SUNNY     43  41  91 CALM      30.46R
STAPLETON        N/A     45  42  89 CALM        N/A
GOTHENBURG       N/A     41  37  86 CALM        N/A
CALLAWAY         N/A     37  36  97 CALM        N/A
$$

...OBSERVATIONS IN CENTRAL LINCOLN COUNTY AREA...

CITY           SKY/WX    TMP DP  RH WIND       PRES   REMARKS
N.P. AIRPORT   SUNNY     43  41  93 E5        30.44R
N.P. DOWNTOWN    N/A     48  42  79 CALM        N/A
N.P. SOUTHEAST   N/A     44  41  90 CALM        N/A
N.P. HILLCREST   N/A     47  43  85 SE3         N/A
$$

...SOME OBSERVATIONS FROM AROUND THE REGION...

CITY           SKY/WX    TMP DP  RH WIND       PRES   REMARKS
DENVER         MOSUNNY   55  37  50 SW6       30.37R
LARAMIE        CLOUDY    45  36  70 SE7       30.43R
CHEYENNE       CLOUDY    46  38  73 W6        30.38S
SCOTTSBLUFF    CLOUDY    48  38  68 E13       30.35R
RAPID CITY     SUNNY     45  37  73 SE6       30.31S
BISMARCK       SUNNY     44  42  93 E7        30.40S
PIERRE         SUNNY     47  45  93 SE8       30.39S
SIOUX FALLS    SUNNY     49  46  90 N3        30.47R
OMAHA          MOSUNNY   50  45  83 N9        30.44R
GRAND ISLAND   SUNNY     46  43  89 NW3       30.47R
KANSAS CITY    SUNNY     54  49  83 N8        30.37R
WICHITA        MOSUNNY   55  49  80 N8        30.40R
OKLAHOMA CITY  MOSUNNY   57  49  74 NE10      30.36R
DALLAS         MOSUNNY   64  50  60 NE12      30.25R
AMARILLO       SUNNY     54  45  71 SE10      30.43R
DODGE CITY     SUNNY     50  44  80 N3        30.44R
HAYS           SUNNY     48  37  66 NW3       30.45R
GOODLAND       SUNNY     49  42  77 S8        30.41R
$$




USA.gov is the U.S. government's official web portal to all federal, state and local government web resources and services.